Location: Beetenbrück
(52.8113°N, 9.5946°E)
Time: 21:28:06
(UTC+00:00)

Cosmos 1937 Rocket - Pass Details

Date: 14 April 2026
Orbit: 742 x 775 km, 74.0° (Epoch: 12 May)

Event Time Altitude Azimuth Distance (km) Brightness Sun altitude
Rises 19:02:20 0° 202° (SSW) 3,242 6.7 -6.9°
Reaches altitude 10° 19:04:42 10° 202° (SSW) 2,319 6.0 -7.2°
Maximum altitude 19:10:00 86° 115° (ESE) 784 3.5 -7.9°
Drops below altitude 10° 19:15:18 10° 27° (NNE) 2,328 6.0 -8.6°
Sets 19:17:41 0° 27° (NNE) 3,255 6.8 -8.9°
